Terug naar catalogus

FORMOSAT 3D

ActiefWetenschapLEO
NORAD 29050·PAYLOAD·🇹🇼 Taiwan

Gelanceerd Apr 15, 2006 vanaf Vandenberg Space Force Base

Loading…

Volgende Passages (komende 24 uur)

TLE

VersSource: Space-Track

Epoch: Sep 13, 2026, 21:32 UTC

1 29050U 06011D   26256.89787088  .00000866  00000-0  16117-3 0  9999
2 29050  72.0120 120.0878 0041673 123.4278 237.0875 14.67117508 89384

Volg FORMOSAT 3D in realtime met AllMySat

Download on the App Store